Flag for Netherlands Weather past 2 weeks in Eindhoven, Netherlands

Now
46 °F

Partly cloudy.


Feels Like: 41 °F
Forecast: 49 / 58 °F
Wind: 13 mph from Northwest

Location: Eindhoven Airport

Current Time: Oct 22, 2014 at 5:37:56 AM

Latest Report: Oct 22, 2014 at 4:55 AM


Visibility: N/A

Pressure: 29.95 "Hg

Humidity: 82%

Dew point: 41 °F

Location of EindhovenLocation

Historic Weather in Eindhoven — Graph

°F

Eindhoven temperature yesterday

Maximum temperature yesterday: 57 °F (at 2:55 PM)
Minimum temperature yesterday: 46 °F (at 11:55 PM)
Average temperature yesterday: 53 °F

Past Weeks' High & Low Weather Summary

 TemperatureHumidityPressure
High75 °F (Oct 18, 4:25 PM)100% (Oct 7, 6:55 AM)30.04 "Hg (Oct 7, 6:55 AM)
Low45 °F (Oct 11, 3:59 AM)60% (Oct 13, 2:25 PM)29.47 "Hg (Oct 7, 7:55 AM)
Average57 °F85%29.79 "Hg
* Reported Oct 7 4:02 AM — Oct 22 4:25 AM, Eindhoven, Weather by CustomWeather, © 2014

Note: Actual official high and low records may vary slightly from our data, if they occured in-between our weather recording intervals... More about our weather records

Advertising

Eindhoven weather history for previous 24 hours

 ConditionsComfort  
Time TempWeatherWind HumidityBarometerVisibility
4:25 AM
Oct 22
46 °FPartly cloudy.13 mph82%29.95 "HgN/A
3:59 AM46 °FLight rain. Partly cloudy.10 mph82%29.92 "HgN/A
3:55 AM45 °FSprinkles. Partly cloudy.9 mph93%29.92 "HgN/A
3:25 AM46 °FPartly cloudy.13 mph82%29.92 "HgN/A
2:55 AM46 °FPartly cloudy.12 mph82%29.92 "HgN/A
2:25 AM46 °FLight rain. Partly cloudy.14 mph87%29.89 "HgN/A
1:55 AM45 °FRain. Partly cloudy.9 mph93%29.89 "Hg6 mi
1:25 AM45 °FRain showers. Partly cloudy.12 mph93%29.89 "Hg4 mi
1:04 AM46 °FPartly cloudy.10 mph87%29.86 "HgN/A
12:55 AM46 °FPartly cloudy.8 mph87%29.86 "HgN/A
12:25 AM45 °FLots of rain. Partly cloudy.10 mph87%29.83 "Hg6 mi
11:55 PM
Oct 21
46 °FPartly cloudy.12 mph82%29.80 "HgN/A
11:25 PM48 °FPartly cloudy.13 mph76%29.80 "HgN/A
10:55 PM48 °FLight rain. Passing clouds.15 mph71%29.77 "HgN/A
10:25 PM50 °FPassing clouds.14 mph71%29.77 "HgN/A
9:55 PM50 °FPassing clouds.15 mph76%29.71 "HgN/A
9:25 PM48 °FLight rain. Partly cloudy.15 mph82%29.71 "HgN/A
8:55 PM50 °FPassing clouds.14 mph71%29.68 "HgN/A
8:25 PM50 °FCool.16 mph71%29.68 "HgN/A
7:55 PM50 °FPassing clouds.16 mph71%29.65 "HgN/A
7:25 PM50 °FBroken clouds.14 mph76%29.65 "HgN/A
6:55 PM48 °FBroken clouds.9 mph82%29.62 "HgN/A
6:25 PM50 °FLight rain. Broken clouds.15 mph76%29.62 "HgN/A
5:55 PM48 °FLight rain. Broken clouds.17 mph82%29.59 "HgN/A
5:25 PM52 °FBroken clouds.16 mph77%29.56 "HgN/A
4:55 PM52 °FScattered clouds.18 mph72%29.56 "HgN/A
4:25 PM54 °FPartly sunny.13 mph82%29.53 "HgN/A
3:55 PM54 °FDrizzle. Broken clouds.13 mph88%29.53 "HgN/A
3:25 PM54 °FSprinkles. Broken clouds.20 mph88%29.50 "Hg5 mi
2:55 PM57 °FMore clouds than sun.17 mph88%29.47 "HgN/A
2:25 PM55 °FDrizzle. Broken clouds.20 mph94%29.50 "Hg4 mi
1:55 PM55 °FRain showers. Broken clouds.16 mph94%29.50 "Hg2 mi
1:25 PM55 °FCloudy.16 mph88%29.53 "HgN/A
12:55 PM54 °FMore clouds than sun.17 mph94%29.56 "HgN/A
12:25 PM54 °FDrizzle. Broken clouds.17 mph94%29.59 "Hg4 mi
11:55 AM54 °FMore clouds than sun.17 mph94%29.62 "HgN/A
11:25 AM54 °FSprinkles. Cloudy.16 mph94%29.62 "HgN/A
10:55 AM55 °FDrizzle. Mostly cloudy.20 mph82%29.65 "HgN/A
10:25 AM55 °FMostly cloudy.18 mph82%29.65 "HgN/A
10:03 AM55 °FLight rain. Broken clouds.16 mph82%29.68 "HgN/A
9:55 AM55 °FBroken clouds.17 mph82%29.68 "HgN/A
9:25 AM55 °FLight rain. More clouds than sun.15 mph82%29.71 "HgN/A
8:55 AM55 °FPartly cloudy.14 mph82%29.74 "HgN/A
8:25 AM54 °FMostly cloudy.14 mph88%29.74 "HgN/A
7:55 AM55 °FOvercast.14 mph82%29.74 "HgN/A
7:25 AM55 °FOvercast.13 mph82%29.74 "HgN/A
6:55 AM54 °FOvercast.12 mph88%29.77 "HgN/A
6:25 AM54 °FOvercast.10 mph88%29.77 "HgN/A
5:55 AM54 °FOvercast.13 mph88%29.80 "HgN/A
Weather by CustomWeather, © 2014

See weather overviewHow to use our weather pages